Cloud_Cover
100 100 100 100 100 100 100 100 100 100 100 100 100 100 100 100 100 100 100 94 100 48 53 7 3 4 3 5 5 97 7 4 5 5 0 1 33 32 5 5 14 20 74
100 100 100 100 100 100 100 100 100 100 100 100 100 100 100 100 100 99 100 100 100 85 22 4 6 3 8 5 82 100 6 0 5 5 0 4 100 100 41 5 5 5 5
100 100 100 100 95 52 100 100 100 100 100 100 100 100 100 100 100 100 100 100 94 90 8 13 80 2 4 71 94 5 5 2 7 2 0 5 96 100 6 5 5 4 0
96 100 100 100 59 37 100 100 100 100 100 100 100 100 100 100 100 100 100 98 100 66 5 48 56 8 67 25 1 5 5 4 5 0 0 20 100 100 5 5 0 0 0
100 100 100 100 100 100 100 100 100 100 100 100 100 100 100 100 100 100 100 72 100 17 90 5 29 32 96 5 5 5 0 0 1 0 0 7 100 98 5 5 0 1 0
100 100 100 100 100 100 100 100 100 100 100 100 100 100 100 100 100 100 100 99 69 100 12 58 100 96 51 76 53 11 5 3 0 0 0 20 100 70 5 5 5 5 5
98 100 100 100 100 100 100 100 100 100 100 100 100 100 100 100 100 100 100 100 46 76 80 99 100 100 98 98 100 8 5 4 1 1 5 6 90 96 5 10 5 5 5
88 100 100 100 100 100 100 100 100 100 100 100 100 100 100 100 100 100 100 100 95 78 93 100 100 100 100 100 100 60 5 5 5 4 4 4 9 57 5 36 72 44 40
100 100 100 100 100 100 100 100 100 100 100 100 100 100 100 100 100 100 100 100 100 100 100 100 100 100 100 100 100 69 68 65 11 5 4 5 5 5 6 61 95 71 11
100 100 100 100 100 100 100 100 100 100 100 100 95 98 100 100 100 100 100 100 100 100 100 100 100 100 100 100 100 98 100 96 57 5 5 5 5 45 5 7 55 75 5
100 100 100 100 100 100 100 100 100 100 100 100 100 100 100 100 100 100 100 66 100 100 98 100 100 100 100 100 100 97 100 82 31 7 20 5 41 78 75 39 12 71 55
100 100 100 100 100 100 100 100 100 100 100 100 69 58 92 94 100 100 74 98 100 100 100 100 100 100 100 97 97 100 98 100 91 82 90 43 96 96 33 20 57 52 78
100 100 100 100 100 100 100 100 100 100 100 17 5 44 85 96 100 100 100 100 100 100 100 100 100 99 100 98 100 100 100 100 100 100 99 66 96 39 8 26 46 6 7
100 100 100 100 100 100 99 70 31 42 21 5 11 92 67 47 100 100 100 91 100 100 100 100 100 98 100 100 98 95 100 100 100 100 100 95 97 82 29 67 100 100 100
100 100 100 100 92 29 8 5 5 5 4 1 1 37 98 78 87 100 100 100 100 100 100 100 100 100 100 100 99 100 100 100 100 100 100 86 95 84 97 100 100 100 100
100 100 100 30 5 5 5 5 5 1 0 0 0 0 38 98 95 100 100 100 100 100 100 100 100 100 97 100 100 100 100 100 100 100 74 70 99 100 100 100 100 100 100
100 100 5 7 5 1 4 8 7 25 0 0 0 0 10 100 100 100 100 100 100 100 100 100 100 100 100 100 100 100 100 100 100 98 65 85 100 100 98 100 100 100 100
24 15 14 4 4 5 5 5 10 26 92 93 13 24 28 76 98 100 100 100 100 100 100 100 100 100 100 100 100 100 99 93 94 76 92 99 100 100 100 100 100 100 100
5 5 4 4 2 7 2 4 33 64 83 87 76 31 77 94 100 100 100 96 100 100 100 100 100 100 100 100 100 100 95 94 83 100 100 100 100 100 100 100 100 100 99
18 4 2 0 0 0 2 10 44 93 100 100 100 99 98 100 100 100 100 100 100 100 100 100 100 100 100 100 100 85 94 97 100 100 100 100 100 100 100 100 100 100 100
0 0 26 5 5 0 0 6 32 62 88 98 99 100 100 98 100 100 100 100 100 100 100 100 100 100 100 98 85 94 100 100 100 100 100 100 100 100 100 100 100 100 100
96 88 53 6 4 5 3 1 21 42 44 53 84 100 100 100 100 100 100 100 100 100 100 100 100 93 78 92 99 100 100 100 100 100 100 100 100 100 100 100 100 100 100
100 5 5 5 7 17 12 16 42 45 43 62 95 100 100 100 100 100 100 100 100 100 100 98 59 70 79 90 100 100 100 100 99 99 100 100 100 100 100 100 100 100 100
5 5 5 8 32 11 49 90 71 45 77 100 100 100 99 100 100 100 100 96 100 99 88 54 68 59 76 89 100 100 100 94 100 100 100 100 100 100 100 100 100 100 100
5 5 6 13 41 73 100 87 100 100 100 100 100 100 97 98 100 97 100 100 100 100 75 54 28 60 83 95 100 94 99 100 99 98 98 100 100 100 100 100 100 100 100
5 5 16 46 77 92 100 100 100 99 100 99 100 89 62 99 84 100 100 100 100 52 55 52 58 70 86 93 90 99 93 91 72 78 95 100 100 100 100 100 100 100 100